Date,TemperatureHighF,TemperatureAvgF,TemperatureLowF,DewpointHighF,DewpointAvgF,DewpointLowF,HumidityHigh,HumidityAvg,HumidityLow,PressureMaxIn,PressureMinIn,WindSpeedMaxMPH,WindSpeedAvgMPH,GustSpeedMaxMPH,PrecipitationSumIn
2013-3-1,63.9,54.8,48.4,53.0,50.2,47.0,95,85,67,30.56,30.41,4,0,7,0.00
2013-3-2,54.3,50.1,44.1,50.0,46.7,37.0,96,88,75,30.41,30.28,6,1,12,0.00
2013-3-3,50.8,41.9,32.8,38.0,33.6,30.0,98,75,46,30.42,30.32,10,1,10,0.01
2013-3-4,56.8,41.6,30.8,40.0,35.0,30.0,97,80,48,30.31,30.01,3,0,7,0.00
2013-3-5,48.7,42.2,35.1,44.0,40.7,34.0,97,94,82,30.01,29.72,6,1,9,0.43
2013-3-6,48.2,42.7,40.0,45.0,40.7,38.0,97,93,86,30.07,29.64,6,1,13,0.39
2013-3-7,56.6,43.5,30.4,42.0,36.2,30.0,98,78,40,30.15,30.07,5,0,8,0.00
2013-3-8,57.8,43.1,31.6,42.0,36.9,31.0,98,81,44,30.30,30.11,4,0,8,0.00
2013-3-9,61.7,43.8,30.4,44.0,36.8,30.0,98,79,42,30.59,30.31,5,0,9,0.01
2013-3-10,55.4,45.2,33.0,47.0,40.2,32.0,97,84,66,30.60,30.50,3,0,7,0.00
2013-3-11,61.6,51.8,46.4,51.0,47.5,45.0,95,86,68,30.52,30.35,2,0,4,0.00
2013-3-12,62.2,51.3,41.4,52.0,46.9,41.0,98,86,66,30.34,30.25,3,0,6,0.00
2013-3-13,67.2,54.6,45.1,52.0,47.9,44.0,94,80,55,30.33,30.18,3,0,5,0.00
2013-3-14,58.8,52.3,44.1,49.0,46.3,43.0,97,81,58,30.31,30.15,3,0,11,0.00
2013-3-15,66.7,55.4,45.8,52.0,48.5,44.0,94,79,53,30.33,30.26,6,1,7,0.00
2013-3-16,50.6,46.5,39.4,47.0,43.4,35.0,95,89,79,30.29,30.13,5,1,14,0.13
2013-3-17,51.0,42.0,33.5,40.0,35.4,32.0,96,79,54,30.43,30.30,5,0,10,0.00
2013-3-18,56.3,42.7,30.6,39.0,33.9,30.0,97,74,44,30.40,30.23,5,1,7,0.00
2013-3-19,48.9,43.3,38.1,46.0,40.2,35.0,98,88,75,30.22,29.78,2,0,7,0.63
2013-3-20,53.8,47.0,36.2,50.0,43.2,34.0,98,87,67,30.30,29.67,11,2,18,0.54
2013-3-21,50.2,40.6,35.0,41.0,35.7,33.0,96,84,59,30.44,30.31,7,1,14,0.06
2013-3-22,48.2,38.4,30.2,39.0,34.2,30.0,97,86,57,30.50,30.42,5,0,9,0.06
2013-3-23,50.6,40.0,30.7,38.0,32.3,29.0,97,76,49,30.49,30.36,4,0,7,0.01
2013-3-24,55.7,44.6,36.0,40.0,36.0,30.0,89,73,51,30.36,30.17,4,0,7,0.00
2013-3-25,59.0,48.2,39.0,42.0,38.2,34.0,86,70,51,30.17,30.01,5,0,8,0.00
2013-3-26,56.4,48.8,44.0,48.0,44.6,41.0,96,85,68,30.11,30.05,2,0,5,0.03
2013-3-27,64.7,50.4,40.9,53.0,46.3,40.0,98,87,59,30.09,29.99,3,0,10,0.30
2013-3-28,67.2,53.7,46.1,53.0,48.9,46.0,98,86,51,30.23,30.08,4,1,7,0.08
2013-3-29,68.8,56.6,48.1,54.0,50.3,47.0,98,81,56,30.29,30.21,6,0,7,0.01
2013-3-30,74.9,59.7,46.5,54.0,49.2,44.0,92,71,44,30.25,30.02,7,1,10,0.00
2013-3-31,75.9,59.8,46.6,56.0,50.6,45.0,95,73,48,30.11,30.00,6,1,13,0.00